{"data":{"norad_id":52586,"intl_designator":"2022-051BC","name":"STARLINK-3910","alt_names":[],"object_type":"PAYLOAD","status":"ACTIVE","operator":null,"country":"US","launch_date":"2022-05-13","launch_site_code":"AFWTR","launch_vehicle":null,"mission":null,"orbit_class":"UNKNOWN","rcs_meters":null,"size_class":null,"mass_kg":null,"dimensions":null,"purposes":["comms"],"wikipedia_slug":null,"has_3d_model":false,"image_url":null,"decayed_at":null,"tle_current":{"epoch":"2026-05-24T17:03:02.631168Z","epoch_age_seconds":99838,"freshness":"FRESH","line1":"1 52586U 22051BC  26144.71044712  .00000107  00000+0  24774-4 0  9994","line2":"2 52586  53.2141 137.8502 0000925  72.3317 287.7776 15.08837897223062","mean_motion":15.08837897,"eccentricity":9.25e-5,"inclination_deg":53.2141,"raan_deg":137.8502,"arg_perigee_deg":72.3317,"mean_anomaly_deg":287.7776,"bstar":2.4774e-5,"rev_number":22306,"period_min":95.437687697474,"perigee_km":539.10991247068,"apogee_km":540.38972153182,"semimajor_km":6917.8868170013,"source":"CELESTRAK","updated_at":"2026-05-25T13:38:17.195594Z"}}}